F6255 Weather Reports


time (UTC)temp
F
wind
direction
speed
knots
gust
knots
rain 1hr
in
rain 24hr
in
rain mn
in
humidity
%
barometer
mb
20260505071556 66 335 4.3 10.4 0.00 0.00 0.00 64 1009.9
20260505070110 66 5 4.3 9.6 0.00 0.00 0.00 64 1010.0
20260505064550 66 344 1.7 8.7 0.00 0.00 0.00 64 1010.1
20260505063049 67 340 2.6 10.4 0.00 0.00 0.00 64 1010.1
20260505061552 67 20 2.6 11.3 0.00 0.00 0.00 64 1010.0
20260505060056 67 17 4.3 11.3 0.00 0.00 0.00 63 1009.8
20260505054555 67 319 5.2 10.4 0.00 0.00 0.00 64 1009.8
20260505053102 67 352 3.5 11.3 0.00 0.00 0.00 64 1009.7
20260505051550 67 336 4.3 11.3 0.00 0.00 0.00 64 1009.7
20260505041553 68 352 2.6 7.8 0.00 0.00 0.00 66 1010.2
20260505040051 68 5 2.6 7.0 0.00 0.00 0.00 67 1010.3
20260505034551 68 11 2.6 7.8 0.00 0.00 0.00 67 1010.1
20260505033053 68 5 2.6 7.0 0.00 0.00 0.00 66 1010.0
20260505031555 68 360 1.7 4.3 0.00 0.00 0.00 66 1009.9
20260505030058 68 313 1.7 5.2 0.00 0.00 0.00 66 1009.9
20260505024555 68 346 1.7 7.0 0.00 0.00 0.00 68 1009.7
20260505023058 67 352 0.0 5.2 0.00 0.00 0.00 73 1009.6
20260505021559 68 360 0.0 4.3 0.00 0.00 0.00 68 1009.2
20260505020055 69 352 0.9 5.2 0.00 0.00 0.00 65 1009.0
20260505014553 70 348 1.7 4.3 0.00 0.00 0.00 63 1008.8
20260505013057 70 352 2.6 5.2 0.00 0.00 0.00 62 1008.8
20260505011553 71 360 0.0 3.5 0.00 0.00 0.00 60 1008.5
20260505010101 72 342 0.9 7.0 0.00 0.00 0.00 57 1008.7
20260505004553 73 345 1.7 7.0 0.00 0.00 0.00 56 1008.6
20260505003059 74 342 1.7 7.8 0.00 0.00 0.00 55 1008.8
20260505001558 74 339 2.6 8.7 0.00 0.00 0.00 55 1008.8
20260505000108 75 331 4.3 13.0 0.00 0.00 0.00 54 1008.8
20260504234551 75 352 5.2 13.0 0.00 0.00 0.00 54 1008.6
20260504233055 76 348 2.6 7.8 0.00 0.00 0.00 53 1009.0
20260504231555 76 19 1.7 9.6 0.00 0.00 0.00 53 1009.4
20260504230057 76 338 2.6 9.6 0.00 0.00 0.00 52 1009.4
20260504224601 76 307 3.5 14.8 0.00 0.00 0.00 51 1009.7
20260504223049 76 321 3.5 13.9 0.00 0.00 0.00 50 1009.9
20260504221554 76 27 5.2 13.9 0.00 0.00 0.00 49 1009.9
20260504220112 77 341 2.6 9.6 0.00 0.00 0.00 50 1010.0
20260504214555 77 5 4.3 13.0 0.00 0.00 0.00 49 1009.9
20260504213107 78 161 1.7 11.3 0.00 0.00 0.00 48 1010.0
20260504211559 78 26 3.5 11.3 0.00 0.00 0.00 48 1010.1
20260504210056 77 335 4.3 14.8 0.00 0.00 0.00 52 1010.0
20260504204556 77 40 2.6 11.3 0.00 0.00 0.00 52 1010.1
20260504203057 77 13 6.1 13.9 0.00 0.00 0.00 52 1010.2
20260504201559 76 106 3.5 11.3 0.00 0.00 0.00 55 1010.5
20260504200100 77 150 1.7 8.7 0.00 0.00 0.00 52 1010.8
20260504194555 77 180 4.3 9.6 0.00 0.00 0.00 53 1011.1
20260504193055 76 324 4.3 10.4 0.00 0.00 0.00 55 1011.3
20260504191600 75 348 4.3 12.2 0.00 0.00 0.00 55 1011.6
20260504190109 75 32 4.3 11.3 0.00 0.00 0.00 55 1011.7
20260504184610 74 343 3.5 11.3 0.00 0.00 0.00 59 1011.7
20260504183053 74 309 2.6 10.4 0.00 0.00 0.00 60 1011.5
20260504181559 72 11 5.2 17.4 0.00 0.00 0.00 60 1011.3
20260504180052 72 331 5.2 13.9 0.00 0.00 0.00 60 1011.3
20260504174549 71 328 7.0 16.5 0.00 0.00 0.00 62 1011.6
20260504173103 70 315 5.2 12.2 0.00 0.00 0.00 63 1011.7
20260504171554 69 329 6.1 15.6 0.00 0.00 0.00 64 1011.7
20260504120104 55 352 4.3 8.7 0.00 0.00 0.00 76 1013.6
20260504081555 55 33 1.7 9.6 0.00 0.00 0.00 64 1013.6